Weather History for KPDX - February, 2014

Change the Weather History Date:

Friday, February 7, 2014

  Actual Average Record
Temperature  
Mean Temperature 24 °F 43 °F  
Max Temperature 28 °F 50 °F 62 °F (1996)
Min Temperature 20 °F 36 °F 20 °F (2014)
Degree Days  
Heating Degree Days 41 22  
Month to date heating degree days 236 154  
Since 1 July heating degree days 2851 2618  
Cooling Degree Days 0 0  
Month to date cooling degree days 0 0  
Year to date cooling degree days 0 0  
Moisture  
Dew Point 19 °F    
Average Humidity 78    
Maximum Humidity 92    
Minimum Humidity 63    
Precipitation  
Precipitation 0.12 in 0.13 in 1.90 in (1996)
Month to date precipitation 0.38 0.92  
Year to date precipitation 3.08 5.80  
Snow  
Snow 0.00 in - - ()
Snow Depth 4.00 in    
Sea Level Pressure  
Sea Level Pressure 29.81 in    
Wind  
Wind Speed 8 mph (ESE)    
Max Wind Speed 20 mph    
Max Gust Speed 24 mph    
Visibility 4 miles    
Events Snow    
T = Trace of Precipitation, MM = Missing Value Source: NWS Daily Summary

Daily Weather History Graph

Daily Weather History Graph

Search for Another Location

Airport or City:

Trip Planner

Search our weather history database for the weather conditions in past years. The results will help you decide how hot, cold, wet, or windy it might be!

Date:

Astronomy

Feb. 07, 2014 Rise Set
Actual Time 7:23 AM PST 5:25 PM PST
Civil Twilight 6:52 AM PST 5:57 PM PST
Nautical Twilight 6:17 AM PST 6:32 PM PST
Astronomical Twilight 5:43 AM PST 7:06 PM PST
Moon 11:37 AM PST (2/7) 1:47 AM PST (2/7)
Length of Visible Light 11h 04m
Length of Day
10h 02m
First Quarter, 60% of the Moon is Illuminated
Feb 7
First Quarter
Feb 14
Full
Feb 22
Last Quarter
Mar 1
New
Mar 8
First Quarter

Hourly Weather History & Observations

Time (PST) Temp. Windchill Dew Point Humidity Pressure Visibility Wind Dir Wind Speed Gust Speed Precip Events Conditions
12:16 AM 19.9 °F 9.3 °F 16.0 °F 85% 29.85 in 6.0 mi ESE 9.2 mph - 0.01 in Snow Light Snow
12:53 AM 19.9 °F 9.3 °F 15.1 °F 81% 29.87 in 6.0 mi ESE 9.2 mph - 0.01 in Snow Light Snow
1:53 AM 21.0 °F 11.4 °F 15.1 °F 78% 29.90 in 8.0 mi East 8.1 mph - 0.00 in   Overcast
2:53 AM 19.9 °F 10.1 °F 12.9 °F 74% 29.93 in 10.0 mi ESE 8.1 mph - N/A   Overcast
3:53 AM 19.9 °F 10.1 °F 12.9 °F 74% 29.94 in 10.0 mi ESE 8.1 mph - N/A   Overcast
4:53 AM 21.0 °F 10.6 °F 12.0 °F 68% 29.95 in 10.0 mi ESE 9.2 mph - N/A   Overcast
5:53 AM 21.0 °F 12.4 °F 12.9 °F 71% 29.94 in 10.0 mi ESE 6.9 mph - N/A   Overcast
6:53 AM 21.9 °F 12.5 °F 14.0 °F 72% 29.94 in 10.0 mi East 8.1 mph - N/A   Overcast
7:53 AM 21.9 °F 14.5 °F 14.0 °F 72% 29.95 in 10.0 mi ENE 5.8 mph - N/A   Overcast
8:53 AM 23.0 °F - 16.0 °F 74% 29.95 in 10.0 mi Calm Calm - N/A   Overcast
9:53 AM 23.0 °F - 16.0 °F 74% 29.94 in 10.0 mi Calm Calm - N/A   Overcast
10:32 AM 26.1 °F - 16.0 °F 66% 29.93 in 10.0 mi Calm Calm - N/A   Mostly Cloudy
10:53 AM 26.1 °F - 16.0 °F 66% 29.93 in 10.0 mi Calm Calm - N/A   Mostly Cloudy
11:53 AM 25.0 °F - 17.1 °F 72% 29.89 in 10.0 mi Calm Calm - N/A   Mostly Cloudy
12:53 PM 26.1 °F 16.8 °F 16.0 °F 66% 29.87 in 10.0 mi SE 9.2 mph - N/A   Overcast
1:53 PM 26.1 °F 14.5 °F 17.1 °F 69% 29.83 in 8.0 mi ESE 13.8 mph - 0.00 in Snow Light Snow
2:00 PM 27.0 °F 15.6 °F 17.1 °F 66% 29.83 in 2.0 mi ESE 13.8 mph - 0.00 in Snow Light Snow
2:09 PM 26.1 °F 15.6 °F 18.0 °F 71% 29.82 in 2.0 mi ESE 11.5 mph - 0.00 in Snow Light Snow
2:53 PM 26.1 °F 15.0 °F 19.9 °F 78% 29.81 in 1.5 mi ESE 12.7 mph - 0.00 in Snow Light Snow
3:08 PM 25.0 °F 14.8 °F 21.0 °F 85% 29.80 in 1.0 mi ESE 10.4 mph - 0.00 in Snow Light Snow
3:14 PM 25.0 °F 14.8 °F 21.0 °F 85% 29.79 in 1.0 mi ESE 10.4 mph - 0.00 in Snow Light Snow
3:19 PM 25.0 °F 14.2 °F 21.0 °F 85% 29.79 in 1.0 mi ESE 11.5 mph - 0.00 in Snow Light Snow
3:22 PM 25.0 °F 14.2 °F 21.0 °F 85% 29.79 in 1.2 mi ESE 11.5 mph - 0.00 in Snow Light Snow
3:42 PM 25.0 °F 15.5 °F 21.9 °F 88% 29.79 in 0.8 mi ESE 9.2 mph - 0.01 in Snow Light Snow
3:53 PM 25.0 °F 15.5 °F 21.9 °F 88% 29.78 in 1.0 mi ESE 9.2 mph - 0.01 in Snow Light Snow
4:15 PM 25.0 °F 16.3 °F 21.9 °F 88% 29.78 in 0.5 mi ESE 8.1 mph - 0.01 in Snow Snow
4:26 PM 25.0 °F 16.3 °F 23.0 °F 92% 29.77 in 0.5 mi ESE 8.1 mph - 0.02 in Snow Snow
4:38 PM 26.1 °F 20.5 °F 23.0 °F 88% 29.77 in 0.8 mi ESE 4.6 mph - 0.03 in Snow Light Snow
4:48 PM 26.6 °F 20.0 °F 23.0 °F 86% 29.76 in 1.0 mi WNW 5.8 mph - 0.03 in Snow Light Snow
4:53 PM 26.1 °F 20.5 °F 23.0 °F 88% 29.76 in 1.0 mi WNW 4.6 mph - 0.03 in Snow Light Snow
5:15 PM 25.0 °F 20.7 °F 23.0 °F 92% 29.76 in 0.5 mi West 3.5 mph - 0.01 in Snow Snow
5:25 PM 25.0 °F 19.3 °F 24.1 °F 96% 29.75 in 0.8 mi West 4.6 mph - 0.02 in Snow Light Snow
5:37 PM 25.0 °F 19.3 °F 23.0 °F 92% 29.74 in 0.5 mi West 4.6 mph - 0.03 in Snow Snow
5:53 PM 25.0 °F - 23.0 °F 92% 29.74 in 0.5 mi Calm Calm - 0.04 in Snow Snow
6:06 PM 25.0 °F 20.7 °F 24.1 °F 96% 29.73 in 0.5 mi WSW 3.5 mph - 0.00 in Snow Snow
6:10 PM 25.0 °F 20.7 °F 24.1 °F 96% 29.73 in 1.0 mi WSW 3.5 mph - 0.01 in Snow Light Snow
6:34 PM 25.0 °F 19.3 °F 23.0 °F 92% 29.71 in 2.0 mi West 4.6 mph - 0.01 in Snow Light Snow
6:41 PM 25.0 °F 19.3 °F 23.0 °F 92% 29.70 in 3.0 mi West 4.6 mph - 0.01 in Snow Light Snow
6:43 PM 25.0 °F 19.3 °F 23.0 °F 92% 29.70 in 3.0 mi West 4.6 mph - 0.01 in Snow Light Snow
6:53 PM 25.0 °F 18.1 °F 23.0 °F 92% 29.70 in 3.0 mi West 5.8 mph - 0.01 in Snow Light Snow
7:35 PM 27.0 °F 20.5 °F 23.0 °F 85% 29.71 in 2.0 mi West 5.8 mph - 0.00 in Snow Light Snow
7:53 PM 28.0 °F 16.5 °F 21.0 °F 75% 29.71 in 2.0 mi East 15.0 mph - 0.00 in Snow Light Snow
7:55 PM 28.0 °F 16.1 °F 21.9 °F 78% 29.71 in 1.0 mi East 16.1 mph - 0.00 in Snow Light Snow
8:53 PM 27.0 °F 14.3 °F 21.9 °F 81% 29.71 in 1.0 mi East 17.3 mph - 0.01 in Snow Light Snow
8:57 PM 27.0 °F 13.9 °F 21.0 °F 78% 29.71 in 2.0 mi East 18.4 mph - 0.01 in Snow Light Snow
9:53 PM 26.1 °F 13.6 °F 19.9 °F 78% 29.75 in 6.0 mi East 16.1 mph - 0.01 in Snow Light Snow
10:53 PM 26.1 °F 14.0 °F 21.0 °F 81% 29.78 in 4.0 mi ESE 15.0 mph - 0.00 in Snow Light Snow
11:46 PM 26.1 °F 14.0 °F 21.0 °F 81% 29.81 in 6.0 mi ESE 15.0 mph - 0.00 in Snow Light Snow
11:53 PM 26.1 °F 15.6 °F 21.0 °F 81% 29.81 in 7.0 mi ESE 11.5 mph - 0.00 in Snow Light Snow